iso_date,Year,Hour,Min,DOY,POS_DOY,Lat,Lon,BP,Ts,Ta,has_bp,has_ts,has_ta,BuoyID,Buoy_Type,Buoy_Owner,Logistics,Hemisphere
2021-11-23T16:00:02Z,2021,16,0,327.6667,327.6667,61.818,-59.018,-999.0,3.47,-999.0,no,yes,no,300234068347820,SVPGHI,AOML,UNKNOWN,North
2021-11-23T16:59:57Z,2021,17,0,327.7083,327.7083,61.823,-58.99,-999.0,3.48,-999.0,no,yes,no,300234068347820,SVPGHI,AOML,UNKNOWN,North
2021-11-23T18:00:00Z,2021,18,0,327.75,327.75,61.822,-58.954,-999.0,3.49,-999.0,no,yes,no,300234068347820,SVPGHI,AOML,UNKNOWN,North
2021-11-23T19:00:02Z,2021,19,0,327.7917,327.7917,61.817,-58.918,-999.0,3.49,-999.0,no,yes,no,300234068347820,SVPGHI,AOML,UNKNOWN,North
2021-11-23T19:59:57Z,2021,20,0,327.8333,327.8333,61.809,-58.89,-999.0,3.5,-999.0,no,yes,no,300234068347820,SVPGHI,AOML,UNKNOWN,North
2021-11-23T21:00:00Z,2021,21,0,327.875,327.875,61.798,-58.867,-999.0,3.5,-999.0,no,yes,no,300234068347820,SVPGHI,AOML,UNKNOWN,North
2021-11-23T22:02:03Z,2021,22,2,327.9181,327.9181,61.787,-58.863,-999.0,3.51,-999.0,no,yes,no,300234068347820,SVPGHI,AOML,UNKNOWN,North
2021-11-23T22:59:57Z,2021,23,0,327.9583,327.9583,61.779,-58.877,-999.0,3.52,-999.0,no,yes,no,300234068347820,SVPGHI,AOML,UNKNOWN,North
2021-11-24T00:00:00Z,2021,0,0,328.0,328.0,61.778,-58.889,-999.0,3.52,-999.0,no,yes,no,300234068347820,SVPGHI,AOML,UNKNOWN,North
2021-11-24T01:03:56Z,2021,1,4,328.0444,328.0444,61.777,-58.901,-999.0,3.53,-999.0,no,yes,no,300234068347820,SVPGHI,AOML,UNKNOWN,North
2021-11-24T01:59:57Z,2021,2,0,328.0833,328.0833,61.781,-58.908,-999.0,3.54,-999.0,no,yes,no,300234068347820,SVPGHI,AOML,UNKNOWN,North
2021-11-24T03:00:00Z,2021,3,0,328.125,328.125,61.784,-58.909,-999.0,3.53,-999.0,no,yes,no,300234068347820,SVPGHI,AOML,UNKNOWN,North
2021-11-24T04:00:02Z,2021,4,0,328.1667,328.1667,61.79,-58.901,-999.0,3.53,-999.0,no,yes,no,300234068347820,SVPGHI,AOML,UNKNOWN,North
2021-11-24T04:59:57Z,2021,5,0,328.2083,328.2083,61.797,-58.876,-999.0,3.53,-999.0,no,yes,no,300234068347820,SVPGHI,AOML,UNKNOWN,North
2021-11-24T06:01:00Z,2021,6,1,328.2507,328.2507,61.8,-58.848,-999.0,3.54,-999.0,no,yes,no,300234068347820,SVPGHI,AOML,UNKNOWN,North
2021-11-24T07:00:02Z,2021,7,0,328.2917,328.2917,61.8,-58.823,-999.0,3.51,-999.0,no,yes,no,300234068347820,SVPGHI,AOML,UNKNOWN,North
2021-11-24T07:59:57Z,2021,8,0,328.3333,328.3333,61.798,-58.804,-999.0,3.51,-999.0,no,yes,no,300234068347820,SVPGHI,AOML,UNKNOWN,North
2021-11-24T09:00:00Z,2021,9,0,328.375,328.375,61.793,-58.791,-999.0,3.5,-999.0,no,yes,no,300234068347820,SVPGHI,AOML,UNKNOWN,North
2021-11-24T10:00:02Z,2021,10,0,328.4167,328.4167,61.787,-58.779,-999.0,3.49,-999.0,no,yes,no,300234068347820,SVPGHI,AOML,UNKNOWN,North
2021-11-24T12:00:00Z,2021,12,0,328.5,328.5,61.775,-58.803,-999.0,3.48,-999.0,no,yes,no,300234068347820,SVPGHI,AOML,UNKNOWN,North
2021-11-24T13:01:03Z,2021,13,1,328.5424,328.5424,61.777,-58.826,-999.0,3.47,-999.0,no,yes,no,300234068347820,SVPGHI,AOML,UNKNOWN,North
2021-11-24T14:00:57Z,2021,14,1,328.584,328.584,61.784,-58.838,-999.0,3.46,-999.0,no,yes,no,300234068347820,SVPGHI,AOML,UNKNOWN,North
2021-11-24T15:03:01Z,2021,15,3,328.6271,328.6271,61.785,-58.849,-999.0,3.46,-999.0,no,yes,no,300234068347820,SVPGHI,AOML,UNKNOWN,North
2021-11-24T16:02:03Z,2021,16,2,328.6681,328.6681,61.793,-58.856,-999.0,3.45,-999.0,no,yes,no,300234068347820,SVPGHI,AOML,UNKNOWN,North
2021-11-24T16:59:57Z,2021,17,0,328.7083,328.7083,61.798,-58.855,-999.0,3.43,-999.0,no,yes,no,300234068347820,SVPGHI,AOML,UNKNOWN,North
2021-11-24T18:00:00Z,2021,18,0,328.75,328.75,61.801,-58.846,-999.0,3.43,-999.0,no,yes,no,300234068347820,SVPGHI,AOML,UNKNOWN,North
2021-11-24T19:03:56Z,2021,19,4,328.7944,328.7944,61.805,-58.827,-999.0,3.43,-999.0,no,yes,no,300234068347820,SVPGHI,AOML,UNKNOWN,North
2021-11-24T19:59:57Z,2021,20,0,328.8333,328.8333,61.804,-58.817,-999.0,3.41,-999.0,no,yes,no,300234068347820,SVPGHI,AOML,UNKNOWN,North
2021-11-24T21:01:00Z,2021,21,1,328.8757,328.8757,61.801,-58.797,-999.0,3.42,-999.0,no,yes,no,300234068347820,SVPGHI,AOML,UNKNOWN,North
2021-11-24T22:00:02Z,2021,22,0,328.9167,328.9167,61.796,-58.787,-999.0,3.42,-999.0,no,yes,no,300234068347820,SVPGHI,AOML,UNKNOWN,North
2021-11-24T22:59:57Z,2021,23,0,328.9583,328.9583,61.788,-58.786,-999.0,3.41,-999.0,no,yes,no,300234068347820,SVPGHI,AOML,UNKNOWN,North
2021-11-25T00:00:00Z,2021,0,0,329.0,329.0,61.781,-58.796,-999.0,3.41,-999.0,no,yes,no,300234068347820,SVPGHI,AOML,UNKNOWN,North
2021-11-25T01:02:03Z,2021,1,2,329.0431,329.0431,61.773,-58.821,-999.0,3.4,-999.0,no,yes,no,300234068347820,SVPGHI,AOML,UNKNOWN,North
2021-11-25T01:59:57Z,2021,2,0,329.0833,329.0833,61.773,-58.844,-999.0,3.41,-999.0,no,yes,no,300234068347820,SVPGHI,AOML,UNKNOWN,North
2021-11-25T03:00:00Z,2021,3,0,329.125,329.125,61.775,-58.86,-999.0,3.39,-999.0,no,yes,no,300234068347820,SVPGHI,AOML,UNKNOWN,North
2021-11-25T04:02:03Z,2021,4,2,329.1681,329.1681,61.78,-58.864,-999.0,3.38,-999.0,no,yes,no,300234068347820,SVPGHI,AOML,UNKNOWN,North
2021-11-25T04:59:57Z,2021,5,0,329.2083,329.2083,61.788,-58.859,-999.0,3.4,-999.0,no,yes,no,300234068347820,SVPGHI,AOML,UNKNOWN,North
2021-11-25T06:00:00Z,2021,6,0,329.25,329.25,61.792,-58.842,-999.0,3.4,-999.0,no,yes,no,300234068347820,SVPGHI,AOML,UNKNOWN,North
2021-11-25T07:01:03Z,2021,7,1,329.2924,329.2924,61.794,-58.822,-999.0,3.39,-999.0,no,yes,no,300234068347820,SVPGHI,AOML,UNKNOWN,North
2021-11-25T08:03:59Z,2021,8,4,329.3361,329.3361,61.793,-58.803,-999.0,3.39,-999.0,no,yes,no,300234068347820,SVPGHI,AOML,UNKNOWN,North
2021-11-25T09:02:00Z,2021,9,2,329.3764,329.3764,61.79,-58.789,-999.0,3.39,-999.0,no,yes,no,300234068347820,SVPGHI,AOML,UNKNOWN,North
2021-11-25T10:00:02Z,2021,10,0,329.4167,329.4167,61.785,-58.784,-999.0,3.4,-999.0,no,yes,no,300234068347820,SVPGHI,AOML,UNKNOWN,North
2021-11-25T10:59:57Z,2021,11,0,329.4583,329.4583,61.78,-58.781,-999.0,3.37,-999.0,no,yes,no,300234068347820,SVPGHI,AOML,UNKNOWN,North
2021-11-25T12:00:00Z,2021,12,0,329.5,329.5,61.775,-58.794,-999.0,3.38,-999.0,no,yes,no,300234068347820,SVPGHI,AOML,UNKNOWN,North
2021-11-25T13:03:56Z,2021,13,4,329.5444,329.5444,61.772,-58.794,-999.0,3.38,-999.0,no,yes,no,300234068347820,SVPGHI,AOML,UNKNOWN,North
2021-11-25T14:03:59Z,2021,14,4,329.5861,329.5861,61.778,-58.837,-999.0,3.38,-999.0,no,yes,no,300234068347820,SVPGHI,AOML,UNKNOWN,North
2021-11-25T15:00:00Z,2021,15,0,329.625,329.625,61.778,-58.844,-999.0,3.36,-999.0,no,yes,no,300234068347820,SVPGHI,AOML,UNKNOWN,North
2021-11-25T18:03:01Z,2021,18,3,329.7521,329.7521,61.789,-58.845,-999.0,3.34,-999.0,no,yes,no,300234068347820,SVPGHI,AOML,UNKNOWN,North
2021-11-25T19:00:02Z,2021,19,0,329.7917,329.7917,61.789,-58.834,-999.0,3.07,-999.0,no,yes,no,300234068347820,SVPGHI,AOML,UNKNOWN,North
2021-11-25T19:59:57Z,2021,20,0,329.8333,329.8333,61.787,-58.816,-999.0,3.06,-999.0,no,yes,no,300234068347820,SVPGHI,AOML,UNKNOWN,North
2021-11-25T21:00:00Z,2021,21,0,329.875,329.875,61.784,-58.804,-999.0,3.04,-999.0,no,yes,no,300234068347820,SVPGHI,AOML,UNKNOWN,North
2021-11-25T22:02:03Z,2021,22,2,329.9181,329.9181,61.778,-58.797,-999.0,3.01,-999.0,no,yes,no,300234068347820,SVPGHI,AOML,UNKNOWN,North
2021-11-25T22:59:57Z,2021,23,0,329.9583,329.9583,61.772,-58.796,-999.0,3.02,-999.0,no,yes,no,300234068347820,SVPGHI,AOML,UNKNOWN,North
2021-11-26T00:00:00Z,2021,0,0,330.0,330.0,61.765,-58.801,-999.0,3.02,-999.0,no,yes,no,300234068347820,SVPGHI,AOML,UNKNOWN,North
2021-11-26T01:00:02Z,2021,1,0,330.0417,330.0417,61.76,-58.806,-999.0,3.02,-999.0,no,yes,no,300234068347820,SVPGHI,AOML,UNKNOWN,North
2021-11-26T01:59:57Z,2021,2,0,330.0833,330.0833,61.759,-58.813,-999.0,3.0,-999.0,no,yes,no,300234068347820,SVPGHI,AOML,UNKNOWN,North
2021-11-26T03:00:00Z,2021,3,0,330.125,330.125,61.757,-58.831,-999.0,3.0,-999.0,no,yes,no,300234068347820,SVPGHI,AOML,UNKNOWN,North
2021-11-26T04:00:02Z,2021,4,0,330.1667,330.1667,61.754,-58.831,-999.0,2.99,-999.0,no,yes,no,300234068347820,SVPGHI,AOML,UNKNOWN,North
2021-11-26T04:59:57Z,2021,5,0,330.2083,330.2083,61.754,-58.838,-999.0,2.98,-999.0,no,yes,no,300234068347820,SVPGHI,AOML,UNKNOWN,North
2021-11-26T06:00:00Z,2021,6,0,330.25,330.25,61.76,-58.835,-999.0,2.96,-999.0,no,yes,no,300234068347820,SVPGHI,AOML,UNKNOWN,North
2021-11-26T07:00:02Z,2021,7,0,330.2917,330.2917,61.758,-58.818,-999.0,2.95,-999.0,no,yes,no,300234068347820,SVPGHI,AOML,UNKNOWN,North
2021-11-26T07:59:57Z,2021,8,0,330.3333,330.3333,61.756,-58.797,-999.0,2.96,-999.0,no,yes,no,300234068347820,SVPGHI,AOML,UNKNOWN,North
2021-11-26T09:00:00Z,2021,9,0,330.375,330.375,61.752,-58.779,-999.0,2.95,-999.0,no,yes,no,300234068347820,SVPGHI,AOML,UNKNOWN,North
2021-11-26T10:00:02Z,2021,10,0,330.4167,330.4167,61.746,-58.766,-999.0,2.93,-999.0,no,yes,no,300234068347820,SVPGHI,AOML,UNKNOWN,North
2021-11-26T13:00:02Z,2021,13,0,330.5417,330.5417,61.731,-58.748,-999.0,2.98,-999.0,no,yes,no,300234068347820,SVPGHI,AOML,UNKNOWN,North
2021-11-26T15:00:00Z,2021,15,0,330.625,330.625,61.72,-58.782,-999.0,2.99,-999.0,no,yes,no,300234068347820,SVPGHI,AOML,UNKNOWN,North
2021-11-26T16:00:02Z,2021,16,0,330.6667,330.6667,61.722,-58.781,-999.0,2.98,-999.0,no,yes,no,300234068347820,SVPGHI,AOML,UNKNOWN,North
2021-11-26T16:59:57Z,2021,17,0,330.7083,330.7083,61.722,-58.782,-999.0,2.96,-999.0,no,yes,no,300234068347820,SVPGHI,AOML,UNKNOWN,North
2021-11-26T18:00:00Z,2021,18,0,330.75,330.75,61.724,-58.782,-999.0,2.96,-999.0,no,yes,no,300234068347820,SVPGHI,AOML,UNKNOWN,North
2021-11-26T19:00:02Z,2021,19,0,330.7917,330.7917,61.725,-58.779,-999.0,2.95,-999.0,no,yes,no,300234068347820,SVPGHI,AOML,UNKNOWN,North
2021-11-26T19:59:57Z,2021,20,0,330.8333,330.8333,61.726,-58.77,-999.0,2.96,-999.0,no,yes,no,300234068347820,SVPGHI,AOML,UNKNOWN,North
2021-11-26T22:00:02Z,2021,22,0,330.9167,330.9167,61.723,-58.746,-999.0,2.99,-999.0,no,yes,no,300234068347820,SVPGHI,AOML,UNKNOWN,North
2021-11-26T22:59:57Z,2021,23,0,330.9583,330.9583,61.716,-58.737,-999.0,3.01,-999.0,no,yes,no,300234068347820,SVPGHI,AOML,UNKNOWN,North
2021-11-27T00:00:00Z,2021,0,0,331.0,331.0,61.71,-58.733,-999.0,3.05,-999.0,no,yes,no,300234068347820,SVPGHI,AOML,UNKNOWN,North
2021-11-27T01:00:02Z,2021,1,0,331.0417,331.0417,61.703,-58.734,-999.0,3.07,-999.0,no,yes,no,300234068347820,SVPGHI,AOML,UNKNOWN,North
2021-11-27T01:59:57Z,2021,2,0,331.0833,331.0833,61.696,-58.74,-999.0,3.08,-999.0,no,yes,no,300234068347820,SVPGHI,AOML,UNKNOWN,North
2021-11-27T03:04:01Z,2021,3,4,331.1278,331.1278,61.692,-58.753,-999.0,3.09,-999.0,no,yes,no,300234068347820,SVPGHI,AOML,UNKNOWN,North
2021-11-27T04:00:02Z,2021,4,0,331.1667,331.1667,61.69,-58.757,-999.0,3.12,-999.0,no,yes,no,300234068347820,SVPGHI,AOML,UNKNOWN,North
2021-11-27T04:59:57Z,2021,5,0,331.2083,331.2083,61.686,-58.766,-999.0,3.18,-999.0,no,yes,no,300234068347820,SVPGHI,AOML,UNKNOWN,North
2021-11-27T06:00:00Z,2021,6,0,331.25,331.25,61.686,-58.769,-999.0,3.19,-999.0,no,yes,no,300234068347820,SVPGHI,AOML,UNKNOWN,North
2021-11-27T07:01:03Z,2021,7,1,331.2924,331.2924,61.681,-58.768,-999.0,3.21,-999.0,no,yes,no,300234068347820,SVPGHI,AOML,UNKNOWN,North
2021-11-27T07:59:57Z,2021,8,0,331.3333,331.3333,61.681,-58.768,-999.0,3.21,-999.0,no,yes,no,300234068347820,SVPGHI,AOML,UNKNOWN,North
2021-11-27T10:00:02Z,2021,10,0,331.4167,331.4167,61.677,-58.752,-999.0,3.18,-999.0,no,yes,no,300234068347820,SVPGHI,AOML,UNKNOWN,North
2021-11-27T13:01:03Z,2021,13,1,331.5424,331.5424,61.662,-58.741,-999.0,3.15,-999.0,no,yes,no,300234068347820,SVPGHI,AOML,UNKNOWN,North
2021-11-27T13:59:57Z,2021,14,0,331.5833,331.5833,61.659,-58.744,-999.0,3.15,-999.0,no,yes,no,300234068347820,SVPGHI,AOML,UNKNOWN,North
2021-11-27T15:00:00Z,2021,15,0,331.625,331.625,61.657,-58.747,-999.0,3.15,-999.0,no,yes,no,300234068347820,SVPGHI,AOML,UNKNOWN,North
2021-11-27T16:00:02Z,2021,16,0,331.6667,331.6667,61.654,-58.76,-999.0,3.15,-999.0,no,yes,no,300234068347820,SVPGHI,AOML,UNKNOWN,North
2021-11-27T16:59:57Z,2021,17,0,331.7083,331.7083,61.651,-58.769,-999.0,3.15,-999.0,no,yes,no,300234068347820,SVPGHI,AOML,UNKNOWN,North
2021-11-27T18:00:00Z,2021,18,0,331.75,331.75,61.651,-58.773,-999.0,3.15,-999.0,no,yes,no,300234068347820,SVPGHI,AOML,UNKNOWN,North
2021-11-27T19:00:02Z,2021,19,0,331.7917,331.7917,61.65,-58.769,-999.0,3.15,-999.0,no,yes,no,300234068347820,SVPGHI,AOML,UNKNOWN,North
2021-11-27T20:00:57Z,2021,20,1,331.834,331.834,61.649,-58.765,-999.0,3.14,-999.0,no,yes,no,300234068347820,SVPGHI,AOML,UNKNOWN,North
2021-11-27T21:00:00Z,2021,21,0,331.875,331.875,61.647,-58.762,-999.0,3.14,-999.0,no,yes,no,300234068347820,SVPGHI,AOML,UNKNOWN,North
2021-11-27T22:00:02Z,2021,22,0,331.9167,331.9167,61.646,-58.758,-999.0,3.14,-999.0,no,yes,no,300234068347820,SVPGHI,AOML,UNKNOWN,North
2021-11-27T23:00:57Z,2021,23,1,331.959,331.959,61.642,-58.753,-999.0,3.14,-999.0,no,yes,no,300234068347820,SVPGHI,AOML,UNKNOWN,North
2021-11-28T00:00:00Z,2021,0,0,332.0,332.0,61.641,-58.748,-999.0,3.14,-999.0,no,yes,no,300234068347820,SVPGHI,AOML,UNKNOWN,North
2021-11-28T01:00:02Z,2021,1,0,332.0417,332.0417,61.635,-58.743,-999.0,3.13,-999.0,no,yes,no,300234068347820,SVPGHI,AOML,UNKNOWN,North
2021-11-28T01:59:57Z,2021,2,0,332.0833,332.0833,61.627,-58.743,-999.0,3.13,-999.0,no,yes,no,300234068347820,SVPGHI,AOML,UNKNOWN,North
2021-11-28T03:01:00Z,2021,3,1,332.1257,332.1257,61.623,-58.75,-999.0,3.12,-999.0,no,yes,no,300234068347820,SVPGHI,AOML,UNKNOWN,North
2021-11-28T04:00:02Z,2021,4,0,332.1667,332.1667,61.621,-58.76,-999.0,3.09,-999.0,no,yes,no,300234068347820,SVPGHI,AOML,UNKNOWN,North
2021-11-28T04:59:57Z,2021,5,0,332.2083,332.2083,61.62,-58.771,-999.0,3.12,-999.0,no,yes,no,300234068347820,SVPGHI,AOML,UNKNOWN,North
2021-11-28T06:00:00Z,2021,6,0,332.25,332.25,61.622,-58.774,-999.0,3.12,-999.0,no,yes,no,300234068347820,SVPGHI,AOML,UNKNOWN,North
2021-11-28T07:03:56Z,2021,7,4,332.2944,332.2944,61.62,-58.785,-999.0,3.12,-999.0,no,yes,no,300234068347820,SVPGHI,AOML,UNKNOWN,North
2021-11-28T07:59:57Z,2021,8,0,332.3333,332.3333,61.622,-58.783,-999.0,3.13,-999.0,no,yes,no,300234068347820,SVPGHI,AOML,UNKNOWN,North
2021-11-28T09:00:00Z,2021,9,0,332.375,332.375,61.624,-58.773,-999.0,3.14,-999.0,no,yes,no,300234068347820,SVPGHI,AOML,UNKNOWN,North
2021-11-28T10:01:03Z,2021,10,1,332.4174,332.4174,61.626,-58.762,-999.0,3.15,-999.0,no,yes,no,300234068347820,SVPGHI,AOML,UNKNOWN,North
2021-11-28T11:01:58Z,2021,11,2,332.4597,332.4597,61.626,-58.747,-999.0,3.15,-999.0,no,yes,no,300234068347820,SVPGHI,AOML,UNKNOWN,North
2021-11-28T13:00:02Z,2021,13,0,332.5417,332.5417,61.619,-58.732,-999.0,3.16,-999.0,no,yes,no,300234068347820,SVPGHI,AOML,UNKNOWN,North
2021-11-28T14:02:58Z,2021,14,3,332.5854,332.5854,61.617,-58.728,-999.0,3.16,-999.0,no,yes,no,300234068347820,SVPGHI,AOML,UNKNOWN,North
2021-11-28T15:00:00Z,2021,15,0,332.625,332.625,61.615,-58.732,-999.0,3.16,-999.0,no,yes,no,300234068347820,SVPGHI,AOML,UNKNOWN,North
2021-11-28T16:00:02Z,2021,16,0,332.6667,332.6667,61.612,-58.741,-999.0,3.16,-999.0,no,yes,no,300234068347820,SVPGHI,AOML,UNKNOWN,North
2021-11-28T16:59:57Z,2021,17,0,332.7083,332.7083,61.611,-58.757,-999.0,3.16,-999.0,no,yes,no,300234068347820,SVPGHI,AOML,UNKNOWN,North
2021-11-28T18:00:00Z,2021,18,0,332.75,332.75,61.613,-58.765,-999.0,3.17,-999.0,no,yes,no,300234068347820,SVPGHI,AOML,UNKNOWN,North
2021-11-28T19:03:56Z,2021,19,4,332.7944,332.7944,61.618,-58.763,-999.0,3.17,-999.0,no,yes,no,300234068347820,SVPGHI,AOML,UNKNOWN,North
2021-11-28T20:03:59Z,2021,20,4,332.8361,332.8361,61.625,-58.76,-999.0,3.17,-999.0,no,yes,no,300234068347820,SVPGHI,AOML,UNKNOWN,North
2021-11-28T21:04:01Z,2021,21,4,332.8778,332.8778,61.631,-58.743,-999.0,3.17,-999.0,no,yes,no,300234068347820,SVPGHI,AOML,UNKNOWN,North
2021-11-28T22:03:56Z,2021,22,4,332.9194,332.9194,61.635,-58.726,-999.0,3.18,-999.0,no,yes,no,300234068347820,SVPGHI,AOML,UNKNOWN,North
2021-11-28T23:03:59Z,2021,23,4,332.9611,332.9611,61.636,-58.702,-999.0,3.18,-999.0,no,yes,no,300234068347820,SVPGHI,AOML,UNKNOWN,North
2021-11-29T00:04:01Z,2021,0,4,333.0028,333.0028,61.638,-58.675,-999.0,3.18,-999.0,no,yes,no,300234068347820,SVPGHI,AOML,UNKNOWN,North
2021-11-29T01:03:56Z,2021,1,4,333.0444,333.0444,61.633,-58.654,-999.0,3.19,-999.0,no,yes,no,300234068347820,SVPGHI,AOML,UNKNOWN,North
2021-11-29T01:59:57Z,2021,2,0,333.0833,333.0833,61.627,-58.633,-999.0,3.19,-999.0,no,yes,no,300234068347820,SVPGHI,AOML,UNKNOWN,North
2021-11-29T03:00:00Z,2021,3,0,333.125,333.125,61.62,-58.622,-999.0,3.19,-999.0,no,yes,no,300234068347820,SVPGHI,AOML,UNKNOWN,North
2021-11-29T04:00:02Z,2021,4,0,333.1667,333.1667,61.615,-58.621,-999.0,3.19,-999.0,no,yes,no,300234068347820,SVPGHI,AOML,UNKNOWN,North
2021-11-29T05:03:59Z,2021,5,4,333.2111,333.2111,61.61,-58.628,-999.0,3.19,-999.0,no,yes,no,300234068347820,SVPGHI,AOML,UNKNOWN,North
2021-11-29T06:00:00Z,2021,6,0,333.25,333.25,61.609,-58.634,-999.0,3.2,-999.0,no,yes,no,300234068347820,SVPGHI,AOML,UNKNOWN,North
2021-11-29T07:03:04Z,2021,7,3,333.2938,333.2938,61.61,-58.634,-999.0,3.21,-999.0,no,yes,no,300234068347820,SVPGHI,AOML,UNKNOWN,North
2021-11-29T08:02:58Z,2021,8,3,333.3354,333.3354,61.614,-58.643,-999.0,3.2,-999.0,no,yes,no,300234068347820,SVPGHI,AOML,UNKNOWN,North
2021-11-29T09:03:01Z,2021,9,3,333.3771,333.3771,61.617,-58.643,-999.0,3.21,-999.0,no,yes,no,300234068347820,SVPGHI,AOML,UNKNOWN,North
2021-11-29T10:00:02Z,2021,10,0,333.4167,333.4167,61.621,-58.636,-999.0,3.21,-999.0,no,yes,no,300234068347820,SVPGHI,AOML,UNKNOWN,North
2021-11-29T11:03:59Z,2021,11,4,333.4611,333.4611,-90.0,-180.0,-999.0,3.21,-999.0,no,yes,no,300234068347820,SVPGHI,AOML,UNKNOWN,North
2021-11-29T12:04:01Z,2021,12,4,333.5028,333.5028,-90.0,-180.0,-999.0,3.21,-999.0,no,yes,no,300234068347820,SVPGHI,AOML,UNKNOWN,North
2021-11-29T13:03:04Z,2021,13,3,333.5438,333.5438,61.627,-58.583,-999.0,3.21,-999.0,no,yes,no,300234068347820,SVPGHI,AOML,UNKNOWN,North
2021-11-29T13:59:57Z,2021,14,0,333.5833,333.5833,61.626,-58.561,-999.0,3.21,-999.0,no,yes,no,300234068347820,SVPGHI,AOML,UNKNOWN,North
2021-11-29T15:04:01Z,2021,15,4,333.6278,333.6278,-90.0,-180.0,-999.0,3.21,-999.0,no,yes,no,300234068347820,SVPGHI,AOML,UNKNOWN,North
2021-11-29T16:03:56Z,2021,16,4,333.6694,333.6694,61.61,-58.54,-999.0,3.21,-999.0,no,yes,no,300234068347820,SVPGHI,AOML,UNKNOWN,North
2021-11-29T17:03:59Z,2021,17,4,333.7111,333.7111,61.602,-58.54,-999.0,3.21,-999.0,no,yes,no,300234068347820,SVPGHI,AOML,UNKNOWN,North
2021-11-29T18:02:00Z,2021,18,2,333.7514,333.7514,61.596,-58.545,-999.0,3.19,-999.0,no,yes,no,300234068347820,SVPGHI,AOML,UNKNOWN,North
2021-11-29T19:02:03Z,2021,19,2,333.7931,333.7931,61.589,-58.558,-999.0,3.19,-999.0,no,yes,no,300234068347820,SVPGHI,AOML,UNKNOWN,North
2021-11-29T19:59:57Z,2021,20,0,333.8333,333.8333,61.586,-58.571,-999.0,3.19,-999.0,no,yes,no,300234068347820,SVPGHI,AOML,UNKNOWN,North
2021-11-29T21:01:00Z,2021,21,1,333.8757,333.8757,61.587,-58.576,-999.0,3.2,-999.0,no,yes,no,300234068347820,SVPGHI,AOML,UNKNOWN,North
2021-11-29T23:03:59Z,2021,23,4,333.9611,333.9611,-90.0,-180.0,-999.0,3.2,-999.0,no,yes,no,300234068347820,SVPGHI,AOML,UNKNOWN,North
2021-11-30T00:04:01Z,2021,0,4,334.0028,334.0028,-90.0,-180.0,-999.0,3.2,-999.0,no,yes,no,300234068347820,SVPGHI,AOML,UNKNOWN,North
2021-11-30T01:03:56Z,2021,1,4,334.0444,334.0444,-90.0,-180.0,-999.0,3.2,-999.0,no,yes,no,300234068347820,SVPGHI,AOML,UNKNOWN,North
2021-11-30T02:03:59Z,2021,2,4,334.0861,334.0861,-90.0,-180.0,-999.0,3.2,-999.0,no,yes,no,300234068347820,SVPGHI,AOML,UNKNOWN,North
2021-11-30T03:04:01Z,2021,3,4,334.1278,334.1278,-90.0,-180.0,-999.0,3.21,-999.0,no,yes,no,300234068347820,SVPGHI,AOML,UNKNOWN,North
2021-11-30T04:03:56Z,2021,4,4,334.1694,334.1694,-90.0,-180.0,-999.0,3.2,-999.0,no,yes,no,300234068347820,SVPGHI,AOML,UNKNOWN,North
2021-11-30T05:03:59Z,2021,5,4,334.2111,334.2111,-90.0,-180.0,-999.0,3.21,-999.0,no,yes,no,300234068347820,SVPGHI,AOML,UNKNOWN,North
2021-11-30T06:04:01Z,2021,6,4,334.2528,334.2528,-90.0,-180.0,-999.0,3.21,-999.0,no,yes,no,300234068347820,SVPGHI,AOML,UNKNOWN,North
2021-11-30T07:03:56Z,2021,7,4,334.2944,334.2944,-90.0,-180.0,-999.0,3.21,-999.0,no,yes,no,300234068347820,SVPGHI,AOML,UNKNOWN,North
2021-11-30T08:03:59Z,2021,8,4,334.3361,334.3361,-90.0,-180.0,-999.0,3.21,-999.0,no,yes,no,300234068347820,SVPGHI,AOML,UNKNOWN,North
2021-11-30T09:01:00Z,2021,9,1,334.3757,334.3757,61.529,-58.458,-999.0,3.21,-999.0,no,yes,no,300234068347820,SVPGHI,AOML,UNKNOWN,North
2021-11-30T10:00:02Z,2021,10,0,334.4167,334.4167,61.529,-58.464,-999.0,3.2,-999.0,no,yes,no,300234068347820,SVPGHI,AOML,UNKNOWN,North
2021-11-30T11:03:59Z,2021,11,4,334.4611,334.4611,61.531,-58.462,-999.0,3.2,-999.0,no,yes,no,300234068347820,SVPGHI,AOML,UNKNOWN,North
2021-11-30T12:04:01Z,2021,12,4,334.5028,334.5028,-90.0,-180.0,-999.0,3.2,-999.0,no,yes,no,300234068347820,SVPGHI,AOML,UNKNOWN,North
2021-11-30T13:03:56Z,2021,13,4,334.5444,334.5444,-90.0,-180.0,-999.0,3.19,-999.0,no,yes,no,300234068347820,SVPGHI,AOML,UNKNOWN,North
2021-11-30T14:03:59Z,2021,14,4,334.5861,334.5861,61.541,-58.428,-999.0,3.2,-999.0,no,yes,no,300234068347820,SVPGHI,AOML,UNKNOWN,North
2021-11-30T15:00:00Z,2021,15,0,334.625,334.625,61.541,-58.406,-999.0,3.2,-999.0,no,yes,no,300234068347820,SVPGHI,AOML,UNKNOWN,North
2021-11-30T16:02:03Z,2021,16,2,334.6681,334.6681,61.539,-58.39,-999.0,3.19,-999.0,no,yes,no,300234068347820,SVPGHI,AOML,UNKNOWN,North
2021-11-30T16:59:57Z,2021,17,0,334.7083,334.7083,61.536,-58.381,-999.0,3.2,-999.0,no,yes,no,300234068347820,SVPGHI,AOML,UNKNOWN,North
2021-11-30T18:02:00Z,2021,18,2,334.7514,334.7514,61.531,-58.376,-999.0,3.17,-999.0,no,yes,no,300234068347820,SVPGHI,AOML,UNKNOWN,North
2021-11-30T19:03:56Z,2021,19,4,334.7944,334.7944,61.527,-58.377,-999.0,3.16,-999.0,no,yes,no,300234068347820,SVPGHI,AOML,UNKNOWN,North
2021-11-30T20:02:58Z,2021,20,3,334.8354,334.8354,61.521,-58.379,-999.0,3.16,-999.0,no,yes,no,300234068347820,SVPGHI,AOML,UNKNOWN,North
2021-11-30T21:04:01Z,2021,21,4,334.8778,334.8778,61.515,-58.383,-999.0,3.18,-999.0,no,yes,no,300234068347820,SVPGHI,AOML,UNKNOWN,North
2021-11-30T22:00:02Z,2021,22,0,334.9167,334.9167,61.511,-58.386,-999.0,3.17,-999.0,no,yes,no,300234068347820,SVPGHI,AOML,UNKNOWN,North
2021-11-30T23:03:59Z,2021,23,4,334.9611,334.9611,61.508,-58.398,-999.0,3.16,-999.0,no,yes,no,300234068347820,SVPGHI,AOML,UNKNOWN,North
2021-12-01T00:00:00Z,2021,0,0,335.0,335.0,61.508,-58.405,-999.0,3.16,-999.0,no,yes,no,300234068347820,SVPGHI,AOML,UNKNOWN,North
2021-12-01T01:00:02Z,2021,1,0,335.0417,335.0417,61.511,-58.408,-999.0,3.15,-999.0,no,yes,no,300234068347820,SVPGHI,AOML,UNKNOWN,North
2021-12-01T02:03:59Z,2021,2,4,335.0861,335.0861,61.515,-58.412,-999.0,3.15,-999.0,no,yes,no,300234068347820,SVPGHI,AOML,UNKNOWN,North
2021-12-01T03:04:01Z,2021,3,4,335.1278,335.1278,61.52,-58.403,-999.0,3.14,-999.0,no,yes,no,300234068347820,SVPGHI,AOML,UNKNOWN,North
2021-12-01T04:00:02Z,2021,4,0,335.1667,335.1667,61.522,-58.394,-999.0,3.14,-999.0,no,yes,no,300234068347820,SVPGHI,AOML,UNKNOWN,North
2021-12-01T04:59:57Z,2021,5,0,335.2083,335.2083,61.52,-58.385,-999.0,3.15,-999.0,no,yes,no,300234068347820,SVPGHI,AOML,UNKNOWN,North
2021-12-01T06:00:00Z,2021,6,0,335.25,335.25,61.517,-58.38,-999.0,3.15,-999.0,no,yes,no,300234068347820,SVPGHI,AOML,UNKNOWN,North
2021-12-01T07:03:56Z,2021,7,4,335.2944,335.2944,61.508,-58.376,-999.0,3.16,-999.0,no,yes,no,300234068347820,SVPGHI,AOML,UNKNOWN,North
2021-12-01T07:59:57Z,2021,8,0,335.3333,335.3333,61.501,-58.375,-999.0,3.16,-999.0,no,yes,no,300234068347820,SVPGHI,AOML,UNKNOWN,North
2021-12-01T09:00:00Z,2021,9,0,335.375,335.375,61.493,-58.381,-999.0,3.15,-999.0,no,yes,no,300234068347820,SVPGHI,AOML,UNKNOWN,North
2021-12-01T10:00:02Z,2021,10,0,335.4167,335.4167,61.484,-58.391,-999.0,3.14,-999.0,no,yes,no,300234068347820,SVPGHI,AOML,UNKNOWN,North
2021-12-01T10:59:57Z,2021,11,0,335.4583,335.4583,61.474,-58.404,-999.0,3.14,-999.0,no,yes,no,300234068347820,SVPGHI,AOML,UNKNOWN,North
2021-12-01T13:00:02Z,2021,13,0,335.5417,335.5417,61.469,-58.422,-999.0,3.14,-999.0,no,yes,no,300234068347820,SVPGHI,AOML,UNKNOWN,North
2021-12-01T13:59:57Z,2021,14,0,335.5833,335.5833,61.47,-58.427,-999.0,3.13,-999.0,no,yes,no,300234068347820,SVPGHI,AOML,UNKNOWN,North
2021-12-01T15:00:00Z,2021,15,0,335.625,335.625,61.47,-58.429,-999.0,3.15,-999.0,no,yes,no,300234068347820,SVPGHI,AOML,UNKNOWN,North